This demonstration page uses our WeatherBlox Daily Observations layout. Learn more.

Left ArrowRight Arrow

31.84235, -102.49876

Hourly Observations for March 4, 2015

Temp ( °F °C ) Dew Point ( °F °C ) Humidity (%) Winds ( mph kmh ) Pressure ( in mb ) Visibility ( mi km ) Precip ( " mm )
12:53 am 00:53 Mostly Cloudy 49 9.4 45 7.2 86 86 Calm 29.79 1009 9 14 0.00 0.00
1:53 am 01:53 Mostly Clear 49 9.4 45 7.2 86 86 N 3 6 29.78 1009 9 14 0.00 0.00
2:53 am 02:53 Mostly Cloudy 48 8.9 45 7.2 89 89 NW 5 7 29.77 1008 8 13 0.00 0.00
3:53 am 03:53 Partly Cloudy 48 8.9 44 6.7 86 86 NW 6 9 29.75 1008 8 13 0.00 0.00
4:53 am 04:53 Mostly Clear 48 8.9 44 6.7 86 86 NW 6 9 29.75 1008 8 13 0.00 0.00
5:53 am 05:53 Clear 47 8.3 43 6.1 86 86 Calm 29.77 1008 8 13 0.00 0.00
6:53 am 06:53 Mostly Cloudy with Mist and Fog 46 7.8 43 6.1 89 89 SSE 5 7 29.79 1009 6 10 0.00 0.00
7:53 am 07:53 Cloudy with Mist and Fog 48 8.9 44 6.7 86 86 NW 8 13 29.82 1010 5 8 0.00 0.00
8:53 am 08:53 Cloudy 53 11.7 44 6.7 72 72 NNW 12 19 29.85 1011 10 16 0.00 0.00
9:53 am 09:53 Cloudy 54 12.2 43 6.1 67 67 N 13 20 29.87 1012 10 16 0.00 0.00
10:53 am 10:53 Mostly Cloudy 54 12.2 48 8.9 80 80 NE 9 15 29.89 1012 8 13 0.00 0.00
11:13 am 11:13 Cloudy 52 11.1 47 8.3 83 83 NE 21 33 29.94 1014 7 11 0.00 0.00
11:24 am 11:24 Cloudy 51 10.6 47 8.3 86 86 NE 21 33 29.91 1013 9 14 0.00 0.00
11:40 am 11:40 Cloudy 48 8.9 44 6.7 86 86 ENE 18 30 29.97 1015 10 16 0.00 0.00
1:44 pm 13:44 Cloudy with Rain 39 3.9 36 2.2 89 89 NE 17 28 30.09 1019 3 4 0.03 0.76
1:53 pm 13:53 Cloudy with Light Rain 39 3.9 36 2.2 89 89 ENE 16 26 29.96 1015 4 6 0.04 1.02
2:53 pm 14:53 Cloudy with Light Rain 37 2.8 34 1.1 89 89 ENE 21 33 29.96 1015 10 16 0.03 0.76
3:53 pm 15:53 Cloudy with Light Rain 36 2.2 32 0 86 86 ENE 23 37 29.97 1015 10 16 0.02 0.51
4:53 pm 16:53 Cloudy with Light Rain 33 0.6 30 -1.1 89 89 ENE 23 37 30.02 1017 8 13 0.01 0.25
5:16 pm 17:16 Cloudy with Freezing Rain 32 0 28 -2.2 85 85 ENE 25 41 30.18 1022 4 6 0.03 0.76
5:27 pm 17:27 Cloudy with Light Freezing Rain 32 0 28 -2.2 85 85 NE 25 41 30.18 1022 5 8 0.04 1.02
5:53 pm 17:53 Cloudy 31 -0.6 28 -2.2 89 89 NE 22 35 30.09 1019 10 16 0.04 1.02
6:16 pm 18:16 Cloudy with Light Freezing Rain 30 -1.1 26 -3.3 85 85 NE 23 37 30.21 1023 9 14 0.00 0.03
6:26 pm 18:26 Cloudy with Light Freezing Rain 29 -1.7 25 -3.9 85 85 NE 25 41 30.24 1024 10 16 0.00 0.03
6:33 pm 18:33 Cloudy 29 -1.7 26 -3.3 89 89 NE 22 35 30.24 1024 10 16 0.00 0.03
6:53 pm 18:53 Cloudy 28 -2.2 23 -5 81 81 NE 25 41 30.14 1021 10 16 0.00 0.03
7:22 pm 19:22 Cloudy with Light Wintry Mix 28 -2.2 23 -5 81 81 NE 21 33 30.30 1026 10 16 0.00 0.03
7:29 pm 19:29 Cloudy with Light Wintry Mix 28 -2.2 23 -5 81 81 NE 18 30 30.30 1026 10 16 0.00 0.03
7:53 pm 19:53 Windy with Snow Likely 26 -3.3 21 -6.1 81 81 NE 23 37 30.22 1023 10 16 0.00 0.03
8:03 pm 20:03 Windy with Snow Likely 26 -3.3 21 -6.1 81 81 NE 25 41 30.39 1029 10 16 0.00 0.03
8:10 pm 20:10 Cloudy 26 -3.3 22 -5.6 84 84 NE 24 39 30.39 1029 10 16 0.00 0.03
8:35 pm 20:35 Cloudy 25 -3.9 21 -6.1 85 85 NE 25 41 30.39 1029 10 16 0.00 0.03
8:53 pm 20:53 Cloudy 26 -3.3 21 -6.1 81 81 NE 17 28 30.25 1025 10 16 0.00 0.03
9:53 pm 21:53 Cloudy 24 -4.4 19 -7.2 81 81 NE 21 33 30.29 1026 10 16 0.00 0.00
10:01 pm 22:01 Cloudy 25 -3.9 20 -6.7 81 81 NE 18 30 30.50 1033 10 16 0.00 0.00
10:22 pm 22:22 Cloudy 24 -4.4 19 -7.2 81 81 NE 24 39 30.50 1033 10 16 0.00 0.00
10:51 pm 22:51 Cloudy 25 -4 19 -7 80 80 NE 18 30 30.50 1033 10 16 0.00 0.00
10:53 pm 22:53 Cloudy 25 -3.9 20 -6.7 81 81 NE 21 33 30.32 1027 10 16 0.00 0.00
11:36 pm 23:36 Cloudy 24 -4.4 19 -7.2 81 81 NE 21 33 30.56 1035 8 13 0.00 0.03
11:53 pm 23:53 Cloudy with Light Snow 24 -4.4 19 -7.2 81 81 NE 16 26 30.39 1029 10 16 0.00 0.03

Powered by AerisWeather